Date String (YYYY-MM-DD hh:mm:ss) UTC,Instrument flags,absolute air pressure of the measurement (hPa),sample flow rate (lpm),inlet stack bypass flow (lpm),air temperature of the measurement (°C),ambient temperature measured by the external sensor (°C),aerosol sample conditioner tube jacket temperature (°C),OPC LED temperature (°C),internal box temperature (°C),relative humidity of the measurement (%),span deviation,mass concentration of particles derived from Lorenz-Mie calculation of OPC scattering (μg/m³),mass concentration of particles derived from Lorenz-Mie calculation of OPC scattering (μg/m³),mass concentration of particles derived from Lorenz-Mie calculation of OPC scattering (μg/m³)
DateTimeUTC,F1_M11,P_M11,Q1_M11,Q2_M11,T1_M11,T2_M11,T3_M11,T4_M11,T5_M11,U1_M11,ZSPAN_M11,X2_M11,X0_M11,X1_M11
2024-06-16 00:00:00,SystemResetWarning,0823.8,5.01,000.00,028.7,027.3,000.0,037.1,030.4,021.9,0000.0,0006.71,0021.02,0005.23
2024-06-16 00:01:00,SystemResetWarning,0823.9,5.01,000.00,028.8,027.7,000.0,037.1,030.5,021.9,0000.0,0006.70,0020.43,0005.25
2024-06-16 00:02:00,SystemResetWarning,0824.1,5.00,000.00,028.9,028.0,000.0,037.1,030.7,021.7,0000.0,0006.68,0020.99,0005.26
2024-06-16 00:03:00,SystemResetWarning,0824.1,5.00,000.00,029.0,028.3,000.0,037.1,030.8,021.0,0000.0,0006.69,0021.57,0005.29
2024-06-16 00:04:00,SystemResetWarning,0824.0,4.99,000.00,029.1,028.5,000.0,037.2,030.9,017.3,0000.0,0006.67,0021.12,0005.30
2024-06-16 00:05:00,SystemResetWarning,0824.0,5.00,000.00,029.1,028.7,000.0,037.2,031.1,015.8,0000.0,0006.58,0020.76,0005.22
2024-06-16 00:06:00,SystemResetWarning,0824.0,5.00,000.00,029.2,028.9,000.0,037.3,031.2,015.2,0000.0,0006.45,0020.92,0005.14
2024-06-16 00:07:00,SystemResetWarning,0823.9,5.00,000.00,029.3,028.6,000.0,037.3,031.0,015.3,0000.0,0006.38,0020.53,0005.05
2024-06-16 00:08:00,SystemResetWarning,0823.9,5.01,000.00,029.1,026.4,000.0,037.4,030.1,015.8,0001.6,0006.27,0020.99,0004.94
2024-06-16 00:09:00,SystemResetWarning,0823.9,5.01,000.00,028.7,025.2,000.0,037.4,029.5,016.3,0002.3,0006.09,0020.58,0004.84
2024-06-16 00:10:00,SystemResetWarning,0824.0,5.01,000.00,028.6,025.9,000.0,037.3,029.6,016.5,0000.5,0005.87,0018.63,0004.72
2024-06-16 00:11:00,SystemResetWarning,0824.0,5.00,000.00,028.6,026.3,000.0,037.2,029.9,016.7,0000.0,0005.69,0016.51,0004.61
2024-06-16 00:12:00,SystemResetWarning,0824.0,4.99,000.00,028.6,026.8,000.0,037.2,030.1,016.7,0000.0,0005.57,0015.31,0004.50
2024-06-16 00:13:00,SystemResetWarning,0824.0,5.00,000.00,028.7,027.3,000.0,037.1,030.3,016.6,0000.0,0005.41,0014.34,0004.39
2024-06-16 00:14:00,SystemResetWarning,0824.0,5.01,000.00,028.7,027.6,000.0,037.1,030.5,016.6,0000.0,0005.24,0014.00,0004.27
2024-06-16 00:15:00,SystemResetWarning,0824.0,5.00,000.00,028.8,027.9,000.0,037.1,030.6,016.6,0000.0,0005.12,0013.74,0004.17
2024-06-16 00:16:00,SystemResetWarning,0824.0,4.99,000.00,028.9,028.2,000.0,037.1,030.7,016.8,0000.0,0005.06,0013.23,0004.13
2024-06-16 00:17:00,SystemResetWarning,0824.0,5.00,000.00,029.0,028.4,000.0,037.1,030.9,016.9,0000.0,0005.04,0012.80,0004.11
2024-06-16 00:18:00,SystemResetWarning,0824.0,5.00,000.00,029.1,028.6,000.0,037.2,031.0,016.5,0000.0,0005.05,0012.77,0004.11
2024-06-16 00:19:00,SystemResetWarning,0824.0,4.99,000.00,029.2,028.8,000.0,037.2,031.1,016.4,0000.0,0005.00,0012.71,0004.11
2024-06-16 00:20:00,SystemResetWarning,0824.0,4.99,000.00,029.3,028.9,000.0,037.2,031.1,016.0,0000.0,0004.95,0012.52,0004.10
2024-06-16 00:21:00,SystemResetWarning,0823.9,4.99,000.00,029.2,027.2,000.0,037.3,030.3,015.8,0000.0,0004.93,0012.62,0004.09
2024-06-16 00:22:00,SystemResetWarning,0823.9,5.01,000.00,028.7,025.3,000.0,037.3,029.5,016.1,0000.0,0004.91,0012.37,0004.08
2024-06-16 00:23:00,SystemResetWarning,0823.9,5.01,000.00,028.5,025.5,000.0,037.3,029.5,016.7,0000.0,0004.83,0011.98,0004.08
2024-06-16 00:24:00,SystemResetWarning,0824.0,5.00,000.00,028.5,026.1,000.0,037.2,029.7,016.8,0000.0,0004.83,0011.28,0004.06
2024-06-16 00:25:00,SystemResetWarning,0824.0,5.00,000.00,028.5,026.5,000.0,037.1,029.9,016.7,0000.0,0004.86,0010.37,0004.05
2024-06-16 00:26:00,SystemResetWarning,0824.0,4.99,000.00,028.6,027.0,000.0,037.0,030.2,016.7,0000.0,0004.80,0010.34,0004.02
2024-06-16 00:27:00,SystemResetWarning,0824.0,5.00,000.00,028.7,027.4,000.0,037.0,030.4,016.7,0000.0,0004.75,0010.54,0004.01
2024-06-16 00:28:00,SystemResetWarning,0824.1,5.00,000.00,028.7,027.7,000.0,037.0,030.5,017.1,0000.0,0004.72,0011.48,0004.00
2024-06-16 00:29:00,SystemResetWarning,0824.1,5.00,000.00,028.8,028.0,000.0,037.0,030.6,016.7,0000.0,0004.68,0011.26,0003.98
2024-06-16 00:30:00,SystemResetWarning,0824.1,4.99,000.00,028.9,028.3,000.0,037.1,030.8,016.0,0000.0,0004.68,0011.82,0003.96
2024-06-16 00:31:00,SystemResetWarning,0824.0,5.00,000.00,029.0,028.5,000.0,037.1,030.9,016.3,0000.0,0004.67,0011.74,0003.95
2024-06-16 00:32:00,SystemResetWarning,0824.0,5.00,000.00,029.1,028.6,000.0,037.1,031.0,016.1,0000.0,0004.64,0011.74,0003.94
2024-06-16 00:33:00,SystemResetWarning,0824.0,5.01,000.00,029.2,028.8,000.0,037.2,031.1,015.8,0000.0,0004.63,0012.05,0003.92
2024-06-16 00:34:00,SystemResetWarning,0823.9,5.01,000.00,029.3,028.9,000.0,037.3,031.2,015.7,0000.0,0004.62,0012.34,0003.91
2024-06-16 00:35:00,SystemResetWarning,0823.8,5.00,000.00,029.3,028.1,000.0,037.3,030.8,015.7,0000.0,0004.57,0012.26,0003.89
2024-06-16 00:36:00,SystemResetWarning,0823.8,4.99,000.00,028.9,025.6,000.0,037.4,029.6,015.9,0000.0,0004.55,0012.57,0003.89
2024-06-16 00:37:00,SystemResetWarning,0823.8,5.02,000.00,028.6,025.2,000.0,037.3,029.3,016.3,0000.0,0004.59,0013.57,0003.89
2024-06-16 00:38:00,SystemResetWarning,0823.8,4.99,000.00,028.5,025.8,000.0,037.3,029.6,016.4,0000.0,0004.64,0014.03,0003.89
2024-06-16 00:39:00,SystemResetWarning,0823.9,5.00,000.00,028.5,026.3,000.0,037.2,029.9,016.3,0000.0,0004.64,0012.93,0003.88
2024-06-16 00:40:00,SystemResetWarning,0823.9,5.00,000.00,028.6,026.8,000.0,037.1,030.1,016.3,0000.0,0004.58,0012.71,0003.85
2024-06-16 00:41:00,SystemResetWarning,0823.8,5.00,000.00,028.6,027.3,000.0,037.1,030.3,016.4,0000.0,0004.53,0011.44,0003.82
2024-06-16 00:42:00,SystemResetWarning,0823.8,5.00,000.00,028.7,027.6,000.0,037.1,030.5,016.7,0000.0,0004.50,0011.04,0003.80
2024-06-16 00:43:00,SystemResetWarning,0823.8,5.00,000.00,028.8,027.9,000.0,037.1,030.6,016.9,0000.0,0004.51,0012.03,0003.77
2024-06-16 00:44:00,SystemResetWarning,0823.8,5.00,000.00,028.8,028.2,000.0,037.1,030.7,016.8,0000.0,0004.59,0013.83,0003.75
2024-06-16 00:45:00,SystemResetWarning,0823.7,4.99,000.00,028.9,028.4,000.0,037.1,030.8,016.7,0000.0,0004.64,0014.62,0003.72
2024-06-16 00:46:00,SystemResetWarning,0823.8,5.00,000.00,029.0,028.6,000.0,037.2,030.9,016.5,0000.0,0004.67,0016.11,0003.70
2024-06-16 00:47:00,SystemResetWarning,0823.9,5.00,000.00,029.1,028.7,000.0,037.2,031.0,016.5,0000.0,0004.61,0016.54,0003.66
2024-06-16 00:48:00,SystemResetWarning,0823.9,5.01,000.00,029.1,028.9,000.0,037.3,031.1,016.4,0000.0,0004.53,0015.80,0003.62
2024-06-16 00:49:00,SystemResetWarning,0824.0,5.01,000.00,029.2,029.0,000.0,037.3,031.2,016.3,0000.0,0004.46,0015.38,0003.60
2024-06-16 00:50:00,SystemResetWarning,0824.0,4.97,000.00,029.2,028.0,000.0,037.4,030.7,016.4,0000.0,0004.38,0015.84,0003.58
2024-06-16 00:51:00,SystemResetWarning,0823.9,5.01,000.00,028.8,025.6,000.0,037.4,029.5,016.8,0000.0,0004.37,0015.95,0003.57
2024-06-16 00:52:00,SystemResetWarning,0824.0,5.01,000.00,028.5,025.2,000.0,037.3,029.3,017.2,0000.0,0004.38,0015.91,0003.57
2024-06-16 00:53:00,SystemResetWarning,0824.0,5.00,000.00,028.5,025.9,000.0,037.3,029.5,017.5,0000.0,0004.36,0016.08,0003.56
2024-06-16 00:54:00,SystemResetWarning,0824.0,5.00,000.00,028.5,026.3,000.0,037.2,029.8,017.4,0000.0,0004.35,0015.52,0003.57
2024-06-16 00:55:00,SystemResetWarning,0824.0,5.00,000.00,028.5,026.8,000.0,037.1,030.1,017.3,0000.0,0004.26,0013.91,0003.58
2024-06-16 00:56:00,SystemResetWarning,0824.0,5.00,000.00,028.6,027.2,000.0,037.1,030.3,017.4,0000.0,0004.14,0012.91,0003.57
2024-06-16 00:57:00,SystemResetWarning,0824.0,4.99,000.00,028.7,027.6,000.0,037.0,030.4,017.5,0000.0,0004.11,0011.44,0003.58
2024-06-16 00:58:00,SystemResetWarning,0824.0,5.00,000.00,028.8,027.9,000.0,037.0,030.6,017.4,0000.0,0004.13,0010.63,0003.61
2024-06-16 00:59:00,SystemResetWarning,0824.1,5.00,000.00,028.8,028.1,000.0,037.0,030.7,017.4,0000.0,0004.14,0010.96,0003.63
